Location: ??????
(36.0418°N, 43.6351°E)
Time: 23:00:52
(UTC+00:00)

Cosmos 1812 - Pass Details

Date: 07 March 2021
Orbit: 516 x 519 km, 82.5° (Epoch: 19 April)

Event Time Altitude Azimuth Distance (km) Brightness Sun altitude
Rises 02:48:42 0° 186° (S) 2,626 6.2 -8.7°
Reaches altitude 10° 02:50:49 10° 187° (S) 1,743 5.3 -8.3°
Maximum altitude 02:54:39 87° 274° (W) 524 2.7 -7.5°
Drops below altitude 10° 02:58:30 10° 6° (N) 1,754 5.5 -6.7°
Sets 03:00:38 0° 7° (N) 2,645 6.4 -6.3°
